Location: Castelbiague
(43.0361°N, 0.9246°E)
Time: 15:54:34
(UTC+00:00)

Uosat 12 SS-18 rocket - Pass Details

Date: 17 June 2021
Orbit: 587 x 1397 km, 64.6° (Epoch: 31 July)

Event Time Altitude Azimuth Distance (km) Brightness Sun altitude
Exits shadow 21:54:41 37° 146° (SE) 964 4.5 -17.8°
Maximum altitude 21:55:32 42° 116° (ESE) 906 4.5 -17.9°
Drops below altitude 10° 22:00:01 10° 46° (NE) 2,155 7.0 -18.3°
Sets 22:02:38 0° 40° (NE) 3,186 8.0 -18.5°
